Temperature
18 18 18 18 18 18 18 18 17 17 17 17 17 17 17 17 17 16 16 16 16 16 16 16 16 16 16 16 16 15 15 15 15 15 15 15 15 15
18 18 18 18 18 18 18 18 17 17 17 17 17 17 17 16 16 16 16 16 16 16 16 16 15 15 15 15 15 15 15 15 15 15 15 15 15 15
17 17 17 18 18 18 18 17 17 17 17 17 17 17 17 16 16 16 16 16 16 16 16 16 16 15 15 15 15 15 15 15 15 15 15 15 14 14
17 17 17 17 17 17 17 17 17 17 17 16 16 16 16 16 16 16 16 16 16 16 16 16 16 15 15 15 15 15 15 15 15 15 14 14 14 14
17 17 17 17 17 17 17 17 17 17 16 16 16 16 16 16 16 16 16 16 15 15 15 15 15 15 15 15 15 15 15 15 15 15 15 14 14 14
17 17 17 17 17 17 17 17 17 16 16 16 16 15 15 15 15 15 15 15 15 15 15 15 15 15 15 15 15 15 15 15 14 14 14 14 14 14
17 17 17 17 17 17 16 16 16 16 16 16 15 15 15 15 15 15 15 15 15 15 15 15 15 15 15 15 15 15 14 14 14 14 14 14 14 14
17 17 16 16 16 16 16 16 16 16 15 15 15 15 15 15 15 15 15 14 14 15 15 15 15 15 15 15 15 14 14 14 14 14 14 14 14 14
16 16 16 16 16 16 16 16 16 15 15 15 15 15 15 15 15 15 14 14 14 14 14 14 14 14 14 14 14 14 14 14 14 14 14 14 14 14
16 16 16 16 16 16 15 15 15 15 15 15 15 15 14 14 14 14 14 14 14 14 14 14 14 14 14 14 14 14 14 14 14 14 14 14 14 13
16 16 15 15 15 15 15 15 15 15 15 14 14 14 14 14 14 14 14 14 14 14 14 14 14 14 14 14 14 13 14 14 13 13 13 13 13 13
15 15 15 15 15 15 14 14 14 14 14 14 14 14 14 14 14 14 13 13 13 13 14 14 13 13 13 13 13 13 13 13 13 13 13 13 13 13
15 15 15 15 15 14 14 14 14 14 14 14 14 14 14 13 13 13 13 13 13 13 13 13 13 13 13 13 13 13 13 13 13 12 12 12 12 12
15 15 14 14 14 14 14 14 14 13 13 13 13 13 13 13 13 13 13 13 13 13 13 13 13 13 12 12 12 12 12 12 12 12 12 12 12 12
14 14 14 14 14 14 13 13 13 13 13 13 13 13 13 13 13 12 12 12 12 12 12 12 12 12 12 12 12 12 12 12 12 12 12 12 12 12
14 14 13 13 13 13 13 13 13 13 13 13 12 12 12 12 12 12 12 12 12 12 12 12 12 12 12 12 12 12 12 11 11 11 11 11 11 11
13 13 13 13 12 12 12 12 12 12 12 12 12 12 12 12 12 12 11 11 11 11 11 12 12 11 11 11 11 11 11 11 11 11 11 11 11 11
13 12 12 12 12 12 12 12 12 12 12 12 12 12 11 11 11 11 11 11 11 11 11 11 11 11 11 11 11 11 11 11 11 11 10 10 10 10
12 12 12 12 12 12 12 12 11 11 11 11 11 11 11 11 11 11 11 11 11 11 11 11 10 10 10 10 10 11 11 10 10 10 10 10 10 10
12 12 12 12 12 11 11 11 11 11 11 11 11 11 11 11 10 10 10 10 10 10 10 10 10 10 10 10 10 10 10 10 10 10 10 10 10 10
12 12 12 11 11 11 11 11 11 11 10 10 10 10 10 10 10 10 10 10 10 10 10 10 10 10 10 9 9 9 10 10 10 10 10 10 9 9
11 11 11 11 11 11 11 10 10 10 10 10 10 10 10 9 9 9 9 9 9 9 9 9 9 9 9 9 9 9 9 9 9 9 9 9 9 9
11 11 11 11 11 10 10 10 10 10 10 9 9 9 9 9 9 9 9 9 9 9 8 8 8 8 8 8 8 8 9 9 9 9 9 9 9 9
Wind_Speed
2 3 3 4 3 3 2 3 2 2 3 2 1 1 2 4 7 6 5 7 9 9 9 8 8 8 8 8 7 6 6 5 5 6 6 7 7 8
2 3 3 4 3 3 2 2 2 2 2 2 2 1 1 2 5 5 5 7 9 9 9 9 8 8 8 8 8 7 6 5 4 5 5 6 6 6
3 2 3 3 4 4 3 2 2 2 3 3 2 1 1 1 3 4 5 6 7 9 9 9 9 8 9 9 9 8 8 7 6 5 6 7 6 6
2 2 3 3 3 3 4 3 3 2 2 3 2 1 1 2 2 3 4 5 5 9 10 10 9 8 9 9 10 10 9 8 7 7 7 6 6 6
2 2 2 3 3 3 4 3 3 3 1 2 2 1 1 1 1 2 2 1 4 6 9 10 9 9 9 9 9 10 9 9 8 7 7 7 6 6
2 1 2 1 2 4 4 4 3 3 2 1 1 1 1 1 1 2 1 1 2 3 4 6 8 9 9 9 9 9 9 10 9 8 7 7 6 6
2 1 1 0 1 2 3 3 3 2 2 1 1 0 0 0 1 2 2 1 2 1 1 3 4 5 6 8 9 9 8 9 9 9 8 8 8 7
2 1 1 1 1 0 2 3 2 2 2 1 1 1 1 1 1 2 1 1 2 1 1 3 3 3 4 5 9 11 11 10 10 10 9 9 8 8
2 1 2 1 1 1 1 1 2 2 2 2 2 2 2 2 2 2 2 2 2 2 1 3 2 2 3 6 11 13 13 12 11 11 10 10 9 9
2 3 2 1 2 1 2 2 2 2 3 1 1 2 2 1 2 3 4 3 3 2 2 2 2 3 2 3 10 12 13 12 11 11 11 11 10 10
3 2 2 2 2 2 2 2 2 2 1 1 1 2 3 3 2 1 3 2 3 2 1 2 2 2 2 2 5 10 10 10 10 10 10 10 10 10
2 2 2 2 3 2 3 3 3 3 2 2 2 2 3 3 3 3 3 3 3 2 1 1 2 1 2 2 2 4 5 7 8 8 9 9 9 6
2 2 1 0 2 3 3 3 4 4 3 3 3 3 3 2 3 3 3 3 3 2 1 1 2 2 2 1 1 2 3 3 4 4 7 8 8 7
3 2 1 1 2 3 3 5 6 5 3 3 2 3 2 2 2 3 3 2 2 3 2 1 2 2 2 3 2 2 2 2 3 3 4 6 7 9
3 3 4 4 3 3 4 6 5 3 3 3 3 2 2 2 2 2 2 2 3 3 3 3 3 3 3 3 3 2 2 2 2 2 2 3 3 4
2 3 4 6 5 5 4 3 3 2 2 3 2 2 1 1 1 1 2 2 2 3 3 3 3 4 4 4 3 3 2 2 2 1 2 2 2 3
1 2 2 2 2 2 2 2 2 2 2 2 2 1 1 1 1 1 1 2 2 2 2 2 2 2 3 3 3 3 3 2 2 2 1 2 2 3
1 3 3 2 3 2 2 2 2 1 1 1 1 1 1 1 1 1 1 2 2 2 1 1 1 1 2 2 3 3 2 3 2 1 2 2 3 2
2 3 3 2 2 2 2 2 1 1 1 1 1 2 2 1 1 2 2 2 2 2 1 1 1 1 2 4 3 3 3 3 2 2 2 3 3 3
2 2 2 1 1 1 2 2 1 1 1 1 1 2 1 1 2 2 2 2 2 2 2 1 1 1 3 3 3 3 5 4 3 3 3 3 3 3
2 2 1 1 1 1 1 1 1 1 1 1 2 2 2 2 2 3 2 2 2 2 2 2 2 2 2 2 3 3 3 4 4 3 3 3 4 4
2 1 1 1 1 0 0 1 2 1 1 2 1 2 2 3 3 3 2 2 2 2 2 2 1 1 2 3 4 4 4 3 4 5 6 6 4 3
1 1 1 1 0 0 1 1 2 2 1 2 1 1 2 2 2 2 2 2 2 2 2 2 2 2 2 3 4 4 4 4 3 2 3 6 8 10
Wind_Direction
265 271 265 277 281 278 279 265 239 259 275 256 248 207 162 147 154 166 174 188 193 195 194 198 205 209 209 208 208 214 222 231 232 231 234 231 234 237
255 283 286 291 301 293 288 288 265 251 265 272 269 255 170 191 172 174 184 189 191 194 196 200 204 210 207 207 205 208 213 220 227 228 227 223 222 227
269 276 280 289 304 309 305 296 277 254 256 274 282 282 188 219 177 189 190 178 189 197 197 201 202 204 206 206 207 208 210 213 219 225 227 222 217 218
254 279 292 295 300 308 308 300 288 275 251 266 277 252 223 207 193 211 215 203 183 193 195 197 200 203 205 207 208 210 210 212 215 221 224 219 217 218
256 261 281 296 310 312 310 308 307 301 261 246 264 254 263 266 214 246 235 230 208 190 194 198 197 200 203 207 209 209 207 208 209 211 214 214 215 215
261 269 284 287 303 307 305 309 305 301 295 267 250 240 219 239 218 258 268 265 246 207 191 188 194 202 206 207 207 207 208 208 207 208 209 210 211 212
253 250 272 102 35 350 317 323 320 313 304 287 262 270 189 185 261 260 259 252 231 222 217 189 188 198 207 215 213 206 204 209 209 210 212 212 212 213
253 264 243 184 116 43 327 333 334 308 307 301 286 264 246 251 267 266 271 274 260 246 236 236 191 204 200 195 200 201 204 209 210 210 212 214 214 215
260 254 273 270 196 226 257 280 313 296 261 242 257 260 255 263 276 283 288 279 263 251 244 264 229 227 213 197 191 198 204 209 213 212 215 219 221 221
238 232 242 247 288 286 275 288 285 304 291 283 260 263 259 276 276 273 261 254 240 250 225 247 251 247 248 184 191 196 204 209 215 217 217 222 226 226
238 241 222 211 263 246 240 255 267 281 325 59 155 203 220 253 265 293 287 271 264 258 242 238 249 244 231 222 205 202 200 206 214 220 222 224 228 230
231 222 211 224 251 240 240 247 253 261 263 272 254 240 228 231 228 229 254 267 266 255 252 247 251 256 249 230 207 199 214 218 218 222 224 228 228 228
246 242 242 228 255 270 266 257 258 267 262 243 239 238 229 217 228 236 240 247 256 255 223 221 261 273 250 256 232 212 203 201 205 229 231 228 220 215
256 255 250 242 285 288 274 266 273 266 257 250 254 250 242 232 237 236 234 252 250 239 238 227 247 256 270 274 265 237 213 200 191 202 210 217 221 222
275 276 281 277 272 270 255 264 266 253 249 254 254 254 229 232 235 233 231 244 258 256 242 232 236 253 260 268 268 254 246 226 200 197 198 193 194 199
299 301 299 283 272 261 264 262 247 250 261 269 269 270 276 252 240 246 258 253 260 265 246 240 238 239 252 263 264 269 260 243 245 228 205 209 206 195
289 274 266 263 261 258 258 267 263 249 265 289 296 302 292 269 283 328 313 289 265 268 268 244 231 226 234 256 257 258 253 251 239 241 251 251 237 209
257 258 254 253 266 267 261 257 269 267 287 310 308 295 288 279 283 286 276 283 291 294 298 278 218 272 281 283 255 254 261 272 266 250 252 255 262 246
252 263 265 269 281 286 289 280 277 301 320 317 321 322 312 301 295 291 287 295 298 292 281 275 264 281 294 298 295 279 266 261 259 260 256 257 261 248
248 255 265 269 282 297 296 295 292 291 287 289 305 307 306 304 295 286 287 291 293 294 291 299 295 288 283 291 294 288 262 249 243 250 263 266 265 254
263 265 281 287 292 296 291 296 297 290 292 290 303 310 314 317 306 303 306 304 295 295 299 306 293 284 291 301 295 290 291 267 249 240 252 267 271 266
277 292 307 291 263 289 329 319 320 333 321 294 317 335 328 322 317 319 322 313 298 296 311 323 324 323 309 289 288 287 290 295 276 265 257 244 236 248
308 302 315 331 360 60 30 328 318 325 347 336 346 349 335 329 319 316 318 311 310 322 338 343 337 325 308 290 288 286 286 290 291 295 287 261 246 244
Height
1523 1523 1523 1523 1523 1522 1522 1522 1522 1520 1519 1518 1518 1517 1517 1516 1516 1516 1516 1516 1515 1515 1515 1516 1516 1516 1516 1517 1517 1518 1518 1519 1520 1521 1522 1523 1524 1525
1521 1521 1521 1520 1520 1520 1520 1519 1519 1518 1517 1516 1516 1515 1515 1515 1514 1514 1514 1514 1513 1513 1513 1513 1513 1513 1513 1514 1514 1515 1515 1516 1517 1518 1519 1519 1520 1521
1519 1518 1518 1518 1518 1517 1517 1517 1516 1516 1514 1513 1514 1513 1512 1512 1511 1511 1512 1511 1511 1511 1511 1511 1511 1510 1510 1511 1511 1512 1513 1513 1514 1514 1515 1516 1517 1518
1516 1516 1516 1515 1515 1514 1514 1514 1513 1513 1512 1511 1510 1510 1509 1509 1509 1509 1509 1509 1509 1509 1509 1509 1508 1508 1508 1508 1509 1509 1510 1510 1511 1511 1512 1513 1514 1515
1514 1514 1513 1513 1512 1512 1511 1511 1510 1510 1509 1509 1507 1507 1507 1507 1507 1507 1507 1507 1507 1507 1507 1506 1506 1506 1505 1505 1506 1506 1507 1507 1508 1508 1509 1509 1510 1512
1512 1511 1511 1510 1509 1509 1509 1508 1508 1507 1507 1506 1505 1504 1504 1504 1504 1504 1504 1505 1505 1505 1504 1504 1504 1504 1503 1503 1503 1503 1503 1504 1504 1505 1505 1506 1507 1508
1509 1509 1508 1508 1507 1507 1506 1505 1505 1504 1504 1503 1502 1502 1501 1501 1501 1501 1502 1502 1502 1502 1502 1502 1502 1501 1501 1500 1500 1500 1500 1500 1501 1502 1502 1503 1504 1505
1507 1506 1505 1505 1504 1504 1504 1503 1503 1502 1501 1500 1500 1499 1499 1499 1499 1500 1500 1500 1499 1500 1500 1500 1499 1499 1498 1498 1498 1498 1498 1498 1498 1498 1499 1500 1500 1501
1503 1503 1503 1502 1501 1501 1500 1500 1500 1499 1499 1498 1497 1497 1497 1497 1497 1497 1497 1497 1497 1497 1498 1497 1497 1496 1496 1495 1495 1495 1495 1495 1494 1494 1495 1496 1497 1498
1500 1500 1500 1499 1499 1498 1497 1497 1496 1495 1495 1495 1494 1494 1494 1494 1494 1495 1494 1494 1494 1494 1494 1494 1494 1493 1493 1492 1493 1492 1492 1491 1491 1491 1491 1492 1493 1494
1497 1497 1497 1496 1495 1495 1495 1494 1493 1492 1492 1492 1492 1491 1491 1491 1491 1491 1491 1491 1490 1490 1491 1491 1491 1490 1490 1490 1490 1490 1489 1488 1488 1488 1488 1488 1489 1490
1494 1494 1494 1493 1492 1492 1492 1491 1490 1489 1489 1488 1488 1488 1488 1487 1488 1488 1487 1487 1487 1487 1487 1488 1487 1487 1487 1486 1486 1486 1486 1485 1485 1485 1485 1485 1485 1486
1490 1490 1490 1490 1490 1489 1489 1488 1487 1487 1486 1486 1485 1485 1484 1484 1484 1484 1484 1484 1484 1483 1484 1484 1484 1484 1483 1483 1483 1483 1483 1482 1482 1482 1481 1481 1482 1482
1487 1487 1487 1487 1487 1486 1486 1485 1484 1484 1484 1483 1483 1482 1481 1481 1480 1480 1480 1481 1480 1480 1480 1481 1480 1480 1480 1480 1480 1480 1479 1479 1479 1479 1478 1478 1478 1478
1484 1484 1484 1484 1483 1482 1482 1481 1481 1481 1481 1480 1479 1479 1478 1478 1478 1477 1477 1477 1477 1477 1477 1477 1477 1477 1477 1476 1476 1476 1476 1476 1476 1476 1475 1475 1474 1475
1481 1481 1480 1480 1479 1478 1478 1478 1478 1478 1477 1477 1477 1476 1476 1475 1475 1474 1474 1473 1473 1473 1473 1474 1474 1473 1473 1472 1473 1472 1472 1473 1473 1473 1472 1471 1471 1471
1478 1478 1477 1477 1477 1476 1476 1476 1475 1475 1475 1474 1474 1474 1473 1473 1472 1472 1471 1471 1471 1470 1470 1470 1470 1470 1469 1469 1469 1469 1469 1469 1469 1469 1468 1468 1468 1468
1475 1475 1475 1475 1474 1474 1473 1473 1473 1472 1471 1471 1471 1471 1471 1471 1470 1469 1469 1468 1468 1467 1467 1467 1466 1466 1466 1466 1467 1466 1465 1465 1465 1465 1464 1464 1464 1464
1473 1472 1472 1472 1472 1472 1471 1471 1470 1470 1469 1469 1469 1468 1468 1468 1467 1467 1466 1466 1465 1464 1464 1464 1464 1464 1463 1462 1462 1463 1463 1461 1461 1461 1461 1460 1460 1460
1470 1470 1470 1470 1469 1469 1469 1468 1468 1467 1467 1467 1466 1466 1466 1465 1464 1464 1463 1463 1462 1462 1461 1461 1461 1461 1461 1460 1459 1459 1459 1459 1458 1457 1457 1457 1456 1456
1469 1469 1469 1468 1468 1467 1467 1466 1466 1465 1465 1464 1464 1464 1463 1462 1462 1461 1460 1459 1459 1458 1458 1458 1458 1458 1458 1457 1456 1455 1455 1455 1455 1454 1453 1453 1452 1452
1467 1467 1467 1466 1466 1465 1465 1464 1464 1463 1463 1462 1461 1461 1461 1460 1459 1458 1457 1456 1455 1455 1455 1455 1454 1454 1454 1454 1453 1452 1451 1450 1450 1450 1450 1449 1448 1447
1466 1465 1465 1464 1464 1463 1463 1462 1461 1460 1460 1459 1458 1458 1458 1457 1456 1455 1454 1453 1453 1452 1452 1451 1451 1451 1451 1450 1450 1449 1448 1446 1446 1445 1445 1445 1444 1443